| time (UTC) | temp F | wind direction | speed MPH | gust MPH | rain 1hr in | rain 24hr in | rain mn in | humidity % | barometer mb |
| 20260504150722 | 72 | 180 | 0.0 | 5.0 | 0.00 | 0.00 | 0.00 | 64 | 1020.6 |
| 20260504150219 | 71 | 236 | 4.0 | 5.0 | 0.00 | 0.00 | 0.00 | 66 | 1020.7 |
| 20260504141148 | 69 | 198 | 2.0 | 4.0 | 0.00 | 0.00 | 0.00 | 73 | 1020.7 |
| 20260504140645 | 68 | 162 | 2.0 | 4.0 | 0.00 | 0.00 | 0.00 | 75 | 1020.8 |
| 20260504140140 | 68 | 261 | 0.0 | 4.0 | 0.00 | 0.00 | 0.00 | 74 | 1020.8 |
| 20260504130609 | 61 | 120 | 1.0 | 3.0 | 0.00 | 0.00 | 0.00 | 84 | 1020.5 |
| 20260504130105 | 60 | 109 | 2.0 | 3.0 | 0.00 | 0.00 | 0.00 | 87 | 1020.5 |
| 20260504110456 | 52 | 110 | 2.0 | 2.0 | 0.00 | 0.00 | 0.00 | 96 | 1020.2 |
| 20260504100419 | 52 | 90 | 0.0 | 1.0 | 0.00 | 0.00 | 0.00 | 97 | 1020.0 |
| 20260504081812 | 54 | 115 | 2.0 | 3.0 | 0.00 | 0.00 | 0.00 | 95 | 1020.1 |
| 20260504081309 | 54 | 105 | 1.0 | 3.0 | 0.00 | 0.00 | 0.00 | 97 | 1020.1 |
| 20260504080805 | 53 | 103 | 1.0 | 2.0 | 0.00 | 0.00 | 0.00 | 97 | 1020.2 |
| 20260504080301 | 53 | 106 | 1.0 | 2.0 | 0.00 | 0.00 | 0.00 | 97 | 1020.2 |
| 20260504070229 | 53 | 180 | 0.0 | 1.0 | 0.00 | 0.00 | 0.00 | 97 | 1020.8 |
| 20260504060149 | 54 | 110 | 2.0 | 2.0 | 0.00 | 0.00 | 0.00 | 96 | 1021.3 |
| 20260504050618 | 54 | 110 | 2.0 | 3.0 | 0.00 | 0.00 | 0.00 | 95 | 1021.5 |
| 20260504050115 | 55 | 90 | 0.0 | 2.0 | 0.00 | 0.00 | 0.00 | 95 | 1021.6 |
| 20260504045612 | 55 | 111 | 1.0 | 3.0 | 0.00 | 0.00 | 0.00 | 95 | 1021.6 |
| 20260504045106 | 55 | 109 | 3.0 | 3.0 | 0.00 | 0.00 | 0.00 | 95 | 1021.3 |
| 20260504044605 | 55 | 90 | 2.0 | 3.0 | 0.00 | 0.00 | 0.00 | 95 | 1021.6 |
| 20260504044101 | 55 | 95 | 2.0 | 2.0 | 0.00 | 0.00 | 0.00 | 94 | 1021.5 |
| 20260504043558 | 55 | 114 | 2.0 | 2.0 | 0.00 | 0.00 | 0.00 | 94 | 1021.5 |
| 20260504043055 | 55 | 105 | 3.0 | 3.0 | 0.00 | 0.00 | 0.00 | 94 | 1021.5 |
| 20260504042552 | 55 | 95 | 2.0 | 3.0 | 0.00 | 0.00 | 0.00 | 94 | 1021.5 |
| 20260504042049 | 55 | 99 | 2.0 | 2.0 | 0.00 | 0.00 | 0.00 | 93 | 1021.4 |
| 20260504041545 | 55 | 102 | 1.0 | 2.0 | 0.00 | 0.00 | 0.00 | 93 | 1021.6 |
| 20260504041041 | 55 | 110 | 2.0 | 3.0 | 0.00 | 0.00 | 0.00 | 93 | 1021.4 |
| 20260504040539 | 55 | 105 | 2.0 | 3.0 | 0.00 | 0.00 | 0.00 | 93 | 1021.5 |
| 20260504040035 | 56 | 94 | 2.0 | 3.0 | 0.00 | 0.00 | 0.00 | 93 | 1021.5 |
| 20260504035532 | 56 | 110 | 2.0 | 2.0 | 0.00 | 0.00 | 0.00 | 92 | 1021.6 |
| 20260504035029 | 56 | 106 | 2.0 | 3.0 | 0.00 | 0.00 | 0.00 | 92 | 1021.7 |
| 20260504034527 | 56 | 103 | 2.0 | 3.0 | 0.00 | 0.00 | 0.00 | 92 | 1021.5 |
| 20260504034023 | 56 | 108 | 3.0 | 3.0 | 0.00 | 0.00 | 0.00 | 92 | 1021.6 |
| 20260504033521 | 56 | 105 | 3.0 | 3.0 | 0.00 | 0.00 | 0.00 | 92 | 1021.8 |
| 20260504033018 | 56 | 110 | 2.0 | 3.0 | 0.00 | 0.00 | 0.00 | 92 | 1021.8 |
| 20260504032515 | 57 | 108 | 3.0 | 3.0 | 0.00 | 0.00 | 0.00 | 92 | 1021.5 |
| 20260504032012 | 57 | 98 | 2.0 | 3.0 | 0.00 | 0.00 | 0.00 | 91 | 1021.7 |
| 20260504031509 | 57 | 123 | 0.0 | 3.0 | 0.00 | 0.00 | 0.00 | 91 | 1021.6 |
| 20260504031005 | 57 | 114 | 2.0 | 3.0 | 0.00 | 0.00 | 0.00 | 91 | 1021.7 |
| 20260504030503 | 57 | 122 | 3.0 | 3.0 | 0.00 | 0.00 | 0.00 | 91 | 1021.8 |
| 20260504025958 | 57 | 114 | 2.0 | 3.0 | 0.00 | 0.00 | 0.00 | 91 | 1021.9 |
| 20260504025455 | 57 | 114 | 2.0 | 3.0 | 0.00 | 0.00 | 0.00 | 91 | 1021.9 |
| 20260504024952 | 57 | 105 | 1.0 | 2.0 | 0.00 | 0.00 | 0.00 | 90 | 1021.7 |
| 20260504024449 | 57 | 105 | 2.0 | 2.0 | 0.00 | 0.00 | 0.00 | 90 | 1021.7 |
| 20260504023946 | 58 | 114 | 2.0 | 2.0 | 0.00 | 0.00 | 0.00 | 91 | 1021.8 |
| 20260504023443 | 58 | 96 | 2.0 | 2.0 | 0.00 | 0.00 | 0.00 | 90 | 1021.9 |
| 20260504022938 | 58 | 112 | 3.0 | 3.0 | 0.00 | 0.00 | 0.00 | 90 | 1021.6 |
| 20260504022435 | 58 | 112 | 2.0 | 3.0 | 0.00 | 0.00 | 0.00 | 90 | 1021.5 |
| 20260504021932 | 59 | 109 | 2.0 | 2.0 | 0.00 | 0.00 | 0.00 | 89 | 1021.5 |
| 20260504021429 | 59 | 160 | 1.0 | 3.0 | 0.00 | 0.00 | 0.00 | 88 | 1021.6 |
| 20260504020926 | 59 | 105 | 2.0 | 3.0 | 0.00 | 0.00 | 0.00 | 88 | 1021.5 |
| 20260504020423 | 59 | 114 | 0.0 | 3.0 | 0.00 | 0.00 | 0.00 | 88 | 1021.5 |
| 20260504015919 | 59 | 115 | 2.0 | 3.0 | 0.00 | 0.00 | 0.00 | 87 | 1021.3 |
| 20260504015415 | 59 | 103 | 2.0 | 2.0 | 0.00 | 0.00 | 0.00 | 86 | 1021.5 |
| 20260504014912 | 59 | 105 | 0.0 | 2.0 | 0.00 | 0.00 | 0.00 | 85 | 1021.4 |
| 20260504014408 | 60 | 115 | 2.0 | 2.0 | 0.00 | 0.00 | 0.00 | 86 | 1021.3 |
| 20260504013905 | 60 | 106 | 2.0 | 3.0 | 0.00 | 0.00 | 0.00 | 85 | 1021.2 |
| 20260504013403 | 60 | 112 | 3.0 | 3.0 | 0.00 | 0.00 | 0.00 | 84 | 1021.4 |
| 20260504012859 | 61 | 111 | 3.0 | 3.0 | 0.00 | 0.00 | 0.00 | 84 | 1021.2 |
| 20260504012357 | 61 | 123 | 0.0 | 3.0 | 0.00 | 0.00 | 0.00 | 83 | 1021.2 |
| 20260504011854 | 62 | 108 | 2.0 | 2.0 | 0.00 | 0.00 | 0.00 | 81 | 1021.2 |
| 20260504011351 | 62 | 122 | 3.0 | 3.0 | 0.00 | 0.00 | 0.00 | 80 | 1021.0 |
| 20260504010847 | 62 | 129 | 2.0 | 3.0 | 0.00 | 0.00 | 0.00 | 79 | 1021.0 |
| 20260504010342 | 62 | 117 | 2.0 | 3.0 | 0.00 | 0.00 | 0.00 | 79 | 1020.9 |
| 20260504005839 | 63 | 115 | 2.0 | 2.0 | 0.00 | 0.00 | 0.00 | 78 | 1020.8 |
| 20260504005336 | 64 | 124 | 2.0 | 3.0 | 0.00 | 0.00 | 0.00 | 78 | 1020.9 |
| 20260504004833 | 64 | 172 | 0.0 | 3.0 | 0.00 | 0.00 | 0.00 | 77 | 1020.7 |
| 20260504004331 | 65 | 130 | 3.0 | 3.0 | 0.00 | 0.00 | 0.00 | 72 | 1020.8 |
| 20260504003827 | 65 | 121 | 2.0 | 3.0 | 0.00 | 0.00 | 0.00 | 72 | 1020.8 |
| 20260504003324 | 66 | 129 | 2.0 | 3.0 | 0.00 | 0.00 | 0.00 | 71 | 1020.8 |
| 20260504002821 | 66 | 115 | 2.0 | 3.0 | 0.00 | 0.00 | 0.00 | 71 | 1020.6 |
| 20260504002318 | 67 | 125 | 3.0 | 3.0 | 0.00 | 0.00 | 0.00 | 74 | 1020.6 |
| 20260504001816 | 67 | 125 | 2.0 | 3.0 | 0.00 | 0.00 | 0.00 | 70 | 1020.6 |
| 20260504001313 | 68 | 131 | 0.0 | 2.0 | 0.00 | 0.00 | 0.00 | 67 | 1020.7 |
| 20260504000809 | 69 | 123 | 2.0 | 2.0 | 0.00 | 0.00 | 0.00 | 67 | 1020.7 |
| 20260504000306 | 70 | 135 | 2.0 | 3.0 | 0.00 | 0.00 | 0.00 | 62 | 1020.5 |
| 20260503235804 | 70 | 157 | 0.0 | 2.0 | 0.00 | 0.00 | 0.00 | 60 | 1020.8 |
| 20260503235304 | 71 | 140 | 0.0 | 2.0 | 0.00 | 0.00 | 0.00 | 61 | 1020.7 |
| 20260503234759 | 72 | 175 | 1.0 | 1.0 | 0.00 | 0.00 | 0.00 | 57 | 1020.7 |
| 20260503234257 | 73 | 114 | 0.0 | 1.0 | 0.00 | 0.00 | 0.00 | 57 | 1020.6 |
| 20260503233754 | 73 | 216 | 2.0 | 3.0 | 0.00 | 0.00 | 0.00 | 50 | 1020.6 |
| 20260503233249 | 74 | 209 | 2.0 | 2.0 | 0.00 | 0.00 | 0.00 | 52 | 1020.7 |
| 20260503232747 | 74 | 7 | 3.0 | 5.0 | 0.00 | 0.00 | 0.00 | 47 | 1020.9 |
| 20260503232244 | 74 | 352 | 2.0 | 3.0 | 0.00 | 0.00 | 0.00 | 47 | 1020.8 |
| 20260503231742 | 75 | 14 | 1.0 | 4.0 | 0.00 | 0.00 | 0.00 | 47 | 1020.9 |
| 20260503231239 | 75 | 270 | 1.0 | 4.0 | 0.00 | 0.00 | 0.00 | 46 | 1021.0 |
| 20260503230734 | 75 | 357 | 3.0 | 5.0 | 0.00 | 0.00 | 0.00 | 46 | 1021.0 |
| 20260503230232 | 76 | 235 | 2.0 | 3.0 | 0.00 | 0.00 | 0.00 | 46 | 1021.0 |
| 20260503225729 | 75 | 309 | 2.0 | 5.0 | 0.00 | 0.00 | 0.00 | 47 | 1020.8 |
| 20260503225229 | 75 | 349 | 4.0 | 8.0 | 0.00 | 0.00 | 0.00 | 48 | 1020.8 |
| 20260503224726 | 76 | 289 | 4.0 | 5.0 | 0.00 | 0.00 | 0.00 | 45 | 1021.0 |
| 20260503224224 | 74 | 74 | 1.0 | 5.0 | 0.00 | 0.00 | 0.00 | 47 | 1021.1 |
| 20260503223722 | 75 | 301 | 2.0 | 3.0 | 0.00 | 0.00 | 0.00 | 47 | 1021.1 |
| 20260503223219 | 76 | 324 | 2.0 | 5.0 | 0.00 | 0.00 | 0.00 | 47 | 1021.1 |
| 20260503222715 | 76 | 261 | 0.0 | 6.0 | 0.00 | 0.00 | 0.00 | 47 | 1021.2 |
| 20260503222213 | 75 | 234 | 4.0 | 5.0 | 0.00 | 0.00 | 0.00 | 46 | 1021.2 |
| 20260503221712 | 75 | 308 | 5.0 | 6.0 | 0.00 | 0.00 | 0.00 | 46 | 1021.3 |
| 20260503221209 | 75 | 221 | 0.0 | 8.0 | 0.00 | 0.00 | 0.00 | 47 | 1021.2 |
| 20260503220705 | 75 | 16 | 3.0 | 3.0 | 0.00 | 0.00 | 0.00 | 47 | 1021.1 |
| 20260503220202 | 74 | 9 | 4.0 | 5.0 | 0.00 | 0.00 | 0.00 | 48 | 1021.1 |
| 20260503215659 | 73 | 8 | 2.0 | 4.0 | 0.00 | 0.00 | 0.00 | 51 | 1021.4 |
| 20260503215155 | 74 | 0 | 2.0 | 3.0 | 0.00 | 0.00 | 0.00 | 49 | 1021.2 |
| 20260503214654 | 74 | 82 | 0.0 | 4.0 | 0.00 | 0.00 | 0.00 | 45 | 1021.5 |
| 20260503214149 | 75 | 173 | 0.0 | 3.0 | 0.00 | 0.00 | 0.00 | 44 | 1021.4 |
| 20260503213643 | 74 | 5 | 1.0 | 3.0 | 0.00 | 0.00 | 0.00 | 47 | 1021.5 |
| 20260503213140 | 74 | 341 | 5.0 | 7.0 | 0.00 | 0.00 | 0.00 | 45 | 1021.5 |
| 20260503212637 | 76 | 241 | 3.0 | 5.0 | 0.00 | 0.00 | 0.00 | 44 | 1021.5 |
| 20260503212135 | 75 | 342 | 1.0 | 5.0 | 0.00 | 0.00 | 0.00 | 44 | 1021.6 |
| 20260503211632 | 75 | 279 | 2.0 | 9.0 | 0.00 | 0.00 | 0.00 | 43 | 1021.6 |
| 20260503211127 | 75 | 1 | 7.0 | 7.0 | 0.00 | 0.00 | 0.00 | 46 | 1021.7 |
| 20260503210624 | 75 | 289 | 8.0 | 11.0 | 0.00 | 0.00 | 0.00 | 45 | 1021.8 |
| 20260503210121 | 75 | 315 | 3.0 | 5.0 | 0.00 | 0.00 | 0.00 | 43 | 1021.8 |
| 20260503205616 | 76 | 349 | 6.0 | 8.0 | 0.00 | 0.00 | 0.00 | 47 | 1022.1 |
| 20260503205113 | 75 | 262 | 3.0 | 5.0 | 0.00 | 0.00 | 0.00 | 44 | 1022.1 |
| 20260503204610 | 75 | 289 | 0.0 | 5.0 | 0.00 | 0.00 | 0.00 | 42 | 1022.3 |
| 20260503204107 | 75 | 317 | 4.0 | 11.0 | 0.00 | 0.00 | 0.00 | 43 | 1022.3 |
| 20260503203604 | 75 | 346 | 1.0 | 9.0 | 0.00 | 0.00 | 0.00 | 41 | 1022.4 |
| 20260503203101 | 75 | 288 | 4.0 | 6.0 | 0.00 | 0.00 | 0.00 | 42 | 1022.4 |
| 20260503202559 | 75 | 2 | 3.0 | 9.0 | 0.00 | 0.00 | 0.00 | 41 | 1022.5 |
| 20260503202057 | 75 | 336 | 8.0 | 8.0 | 0.00 | 0.00 | 0.00 | 43 | 1022.6 |
| 20260503201555 | 75 | 289 | 5.0 | 10.0 | 0.00 | 0.00 | 0.00 | 40 | 1022.4 |
| 20260503201052 | 75 | 11 | 3.0 | 10.0 | 0.00 | 0.00 | 0.00 | 41 | 1022.7 |
| 20260503200548 | 75 | 308 | 2.0 | 5.0 | 0.00 | 0.00 | 0.00 | 40 | 1022.8 |
| 20260503200044 | 74 | 331 | 3.0 | 9.0 | 0.00 | 0.00 | 0.00 | 44 | 1023.1 |
| 20260503195542 | 74 | 259 | 2.0 | 4.0 | 0.00 | 0.00 | 0.00 | 37 | 1022.9 |
| 20260503195038 | 74 | 0 | 3.0 | 5.0 | 0.00 | 0.00 | 0.00 | 42 | 1023.3 |
| 20260503194536 | 74 | 357 | 7.0 | 8.0 | 0.00 | 0.00 | 0.00 | 40 | 1023.4 |
| 20260503194035 | 74 | 11 | 2.0 | 4.0 | 0.00 | 0.00 | 0.00 | 37 | 1023.4 |
| 20260503193532 | 75 | 3 | 3.0 | 3.0 | 0.00 | 0.00 | 0.00 | 39 | 1023.5 |
| 20260503193027 | 74 | 354 | 3.0 | 5.0 | 0.00 | 0.00 | 0.00 | 38 | 1023.4 |
| 20260503192524 | 75 | 292 | 2.0 | 6.0 | 0.00 | 0.00 | 0.00 | 42 | 1023.7 |
| 20260503192020 | 74 | 319 | 2.0 | 10.0 | 0.00 | 0.00 | 0.00 | 37 | 1023.7 |
| 20260503191517 | 74 | 18 | 2.0 | 9.0 | 0.00 | 0.00 | 0.00 | 39 | 1023.6 |
| 20260503191014 | 74 | 244 | 3.0 | 7.0 | 0.00 | 0.00 | 0.00 | 40 | 1023.8 |
| 20260503190511 | 73 | 285 | 0.0 | 5.0 | 0.00 | 0.00 | 0.00 | 38 | 1023.7 |
| 20260503190008 | 74 | 350 | 3.0 | 5.0 | 0.00 | 0.00 | 0.00 | 43 | 1024.1 |
| 20260503185504 | 73 | 355 | 7.0 | 9.0 | 0.00 | 0.00 | 0.00 | 47 | 1023.9 |
| 20260503185004 | 73 | 35 | 3.0 | 5.0 | 0.00 | 0.00 | 0.00 | 41 | 1024.0 |
| 20260503184500 | 73 | 246 | 2.0 | 9.0 | 0.00 | 0.00 | 0.00 | 47 | 1024.1 |
| 20260503183956 | 73 | 1 | 5.0 | 7.0 | 0.00 | 0.00 | 0.00 | 43 | 1024.3 |
| 20260503183453 | 73 | 4 | 6.0 | 6.0 | 0.00 | 0.00 | 0.00 | 46 | 1024.3 |
| 20260503182950 | 73 | 8 | 2.0 | 6.0 | 0.00 | 0.00 | 0.00 | 46 | 1024.5 |
| 20260503182449 | 74 | 226 | 4.0 | 6.0 | 0.00 | 0.00 | 0.00 | 45 | 1024.4 |
| 20260503181946 | 74 | 90 | 2.0 | 6.0 | 0.00 | 0.00 | 0.00 | 50 | 1024.5 |
| 20260503181443 | 73 | 213 | 3.0 | 5.0 | 0.00 | 0.00 | 0.00 | 48 | 1024.6 |
| 20260503180939 | 73 | 310 | 3.0 | 5.0 | 0.00 | 0.00 | 0.00 | 48 | 1024.6 |
| 20260503180438 | 73 | 240 | 5.0 | 5.0 | 0.00 | 0.00 | 0.00 | 47 | 1024.7 |
| 20260503175934 | 73 | 257 | 4.0 | 8.0 | 0.00 | 0.00 | 0.00 | 44 | 1024.8 |
| 20260503175432 | 73 | 114 | 0.0 | 4.0 | 0.00 | 0.00 | 0.00 | 46 | 1024.9 |
| 20260503174928 | 73 | 217 | 3.0 | 11.0 | 0.00 | 0.00 | 0.00 | 49 | 1024.9 |
| 20260503174426 | 73 | 246 | 1.0 | 5.0 | 0.00 | 0.00 | 0.00 | 50 | 1025.0 |
| 20260503173926 | 73 | 235 | 2.0 | 3.0 | 0.00 | 0.00 | 0.00 | 49 | 1025.2 |
| 20260503173423 | 72 | 214 | 2.0 | 6.0 | 0.00 | 0.00 | 0.00 | 50 | 1025.2 |
| 20260503172919 | 72 | 26 | 2.0 | 4.0 | 0.00 | 0.00 | 0.00 | 51 | 1025.1 |
| 20260503172417 | 72 | 320 | 5.0 | 5.0 | 0.00 | 0.00 | 0.00 | 50 | 1025.2 |
| 20260503171913 | 72 | 23 | 3.0 | 5.0 | 0.00 | 0.00 | 0.00 | 54 | 1025.3 |
| 20260503171410 | 72 | 213 | 5.0 | 9.0 | 0.00 | 0.00 | 0.00 | 51 | 1025.5 |
| 20260503170907 | 71 | 292 | 2.0 | 8.0 | 0.00 | 0.00 | 0.00 | 54 | 1025.5 |
| 20260503170403 | 72 | 194 | 1.0 | 6.0 | 0.00 | 0.00 | 0.00 | 52 | 1025.6 |